北斗一号 G1 (CHINASAT 32 (BEIDOU-1 G1))

导读 | 星芒AI

CHINASAT 32,又称BEIDOU-1 G1,是中国北斗导航卫星系统的一部分,于2010年发射。该卫星属于北斗一代(BeiDou-1)系列,主要用于提供区域性的定位、导航和授时服务。它运行在地球静止轨道上,是中国早期建设自主卫星导航系统的重要组成部分。尽管北斗一代系统已逐步被更先进的北斗二代系统取代,CHINASAT 32在推动中国卫星导航技术发展方面发挥了重要作用。

基本信息
目录编号:
26599
目录名称:
CHINASAT 32 (BEIDOU 1)
国际标识:
2000-069A
轨道中心:
EARTH
卫星名称:
北斗一号 G1
卫星全名:
北斗一号 G1 (CHINASAT 32 (BEIDOU-1 G1))
卫星状态:
在轨 (已飞行9136 天)
发射日期:
2000-10-30 UTC
国别 :
中国 (CN)
星等 :
--
轨道信息
数据来源 国际轨道数据 AOE轨道数据
星历时间 2025-11-03T15:21:51+0800
1天前
查看轨道信息
2025-11-03T16:00:00+0800
1天前
查看轨道信息
半长轴 42552.298km 42552.183km
偏心率 0.0006705 0.0006737
轨道倾角 11.976° 11.976°
近地点辐角 326.363° 325.299°
升交点赤经 34.017° 34.017°
平近点角 39.413° 49.909°
近地点 36145.631km 36145.38km
远地点 36202.695km 36202.716km
周期 1455.943分钟 1455.937分钟
每日圈数 0.98905 0.989054
详细信息
卫星平台:
东方红三号
平衡模式:
三轴稳定
制造商(研发单位):
中国空间技术研究院
制造商所在国:
中国
使用方式:
暂无
卫星简介
北斗卫星导航系统是中国着眼于国家安全和经济社会发展需要,自主建设运行的全球卫星导航系统,是为全球用户提供全天候、全天时、高精度的定位、导航和授时服务的国家重要时空基础设施。该卫星已退役。
2D轨道图
3D轨道图
轨道高度分析图
轨道倾角分析图
轨道综合分析图
查看轨道综合分析图